Date String (YYYY-MM-DD hh:mm:ss) UTC,Instrument flags,absolute air pressure of the measurement (hPa),sample flow rate (lpm),inlet stack bypass flow (lpm),air temperature of the measurement (°C),ambient temperature measured by the external sensor (°C),aerosol sample conditioner tube jacket temperature (°C),OPC LED temperature (°C),internal box temperature (°C),relative humidity of the measurement (%),span deviation,mass concentration of particles derived from Lorenz-Mie calculation of OPC scattering (μg/m³),mass concentration of particles derived from Lorenz-Mie calculation of OPC scattering (μg/m³),mass concentration of particles derived from Lorenz-Mie calculation of OPC scattering (μg/m³)
DateTimeUTC,F1_M11,P_M11,Q1_M11,Q2_M11,T1_M11,T2_M11,T3_M11,T4_M11,T5_M11,U1_M11,ZSPAN_M11,X2_M11,X0_M11,X1_M11
2024-05-31 20:00:00,SystemResetWarning,0830.3,5.00,000.00,030.2,029.5,000.0,038.6,032.0,025.2,0002.1,0008.21,0019.78,0007.34
2024-05-31 20:01:00,SystemResetWarning,0830.4,5.00,000.00,030.2,029.5,000.0,038.6,032.0,024.6,0002.4,0008.18,0019.19,0007.32
2024-05-31 20:02:00,SystemResetWarning,0830.4,5.00,000.00,030.2,029.5,000.0,038.6,032.0,025.0,0002.5,0008.11,0017.88,0007.30
2024-05-31 20:03:00,SystemResetWarning,0830.4,5.01,000.00,030.3,029.5,000.0,038.6,032.0,024.4,0002.6,0008.09,0017.24,0007.27
2024-05-31 20:04:00,SystemResetWarning,0830.3,5.01,000.00,030.3,029.5,000.0,038.6,032.0,024.1,0002.6,0008.05,0017.14,0007.24
2024-05-31 20:05:00,SystemResetWarning,0830.3,5.00,000.00,030.3,029.5,000.0,038.6,032.0,024.1,0002.2,0007.97,0016.70,0007.21
2024-05-31 20:06:00,SystemResetWarning,0830.2,5.00,000.00,030.3,029.5,000.0,038.6,032.0,024.5,0001.8,0007.92,0015.84,0007.19
2024-05-31 20:07:00,SystemResetWarning,0830.2,4.99,000.00,030.3,029.5,000.0,038.6,032.0,024.6,0002.1,0007.94,0015.40,0007.16
2024-05-31 20:08:00,SystemResetWarning,0830.2,5.00,000.00,030.3,029.6,000.0,038.7,032.1,024.4,0002.3,0007.97,0015.14,0007.12
2024-05-31 20:09:00,SystemResetWarning,0830.2,5.01,000.00,030.3,029.6,000.0,038.6,032.0,025.1,0001.9,0007.98,0014.76,0007.11
2024-05-31 20:10:00,SystemResetWarning,0830.2,5.00,000.00,030.3,029.6,000.0,038.7,032.1,024.4,0001.7,0008.03,0014.87,0007.11
2024-05-31 20:11:00,SystemResetWarning,0830.2,5.01,000.00,030.3,029.6,000.0,038.7,032.1,024.6,0001.6,0008.02,0014.50,0007.09
2024-05-31 20:12:00,SystemResetWarning,0830.3,5.00,000.00,030.3,029.6,000.0,038.7,032.1,024.7,0001.6,0008.00,0014.77,0007.08
2024-05-31 20:13:00,SystemResetWarning,0830.2,5.00,000.00,030.3,029.6,000.0,038.7,032.1,024.6,0001.8,0008.05,0015.52,0007.06
2024-05-31 20:14:00,SystemResetWarning,0830.3,5.01,000.00,030.3,029.6,000.0,038.7,032.1,024.6,0001.9,0008.11,0015.47,0007.08
2024-05-31 20:15:00,SystemResetWarning,0830.2,5.00,000.00,030.4,029.6,000.0,038.7,032.1,024.7,0002.0,0008.12,0015.06,0007.11
2024-05-31 20:16:00,SystemResetWarning,0830.2,4.99,000.00,030.4,029.6,000.0,038.7,032.1,024.7,0002.2,0008.12,0014.98,0007.11
2024-05-31 20:17:00,SystemResetWarning,0830.3,4.99,000.00,030.4,029.6,000.0,038.7,032.1,025.1,0001.8,0008.09,0014.78,0007.11
2024-05-31 20:18:00,SystemResetWarning,0830.2,5.00,000.00,030.4,029.7,000.0,038.7,032.1,025.4,0002.9,0008.10,0014.78,0007.10
2024-05-31 20:19:00,SystemResetWarning,0830.2,5.01,000.00,030.4,029.7,000.0,038.7,032.2,025.5,0002.6,0008.03,0014.25,0007.10
2024-05-31 20:20:00,SystemResetWarning,0830.2,5.01,000.00,030.4,029.7,000.0,038.8,032.2,025.1,0002.8,0007.98,0014.35,0007.05
2024-05-31 20:21:00,SystemResetWarning,0830.3,4.99,000.00,030.4,029.7,000.0,038.8,032.2,025.4,0002.9,0007.95,0014.56,0007.03
2024-05-31 20:22:00,SystemResetWarning,0830.2,4.99,000.00,030.4,029.7,000.0,038.8,032.2,025.5,0002.8,0007.97,0014.45,0007.01
2024-05-31 20:23:00,SystemResetWarning,0830.3,5.00,000.00,030.4,029.7,000.0,038.8,032.2,025.4,0002.7,0007.95,0014.19,0007.00
2024-05-31 20:24:00,SystemResetWarning,0830.2,5.01,000.00,030.4,029.7,000.0,038.8,032.2,024.8,0002.3,0007.92,0013.78,0007.01
2024-05-31 20:25:00,SystemResetWarning,0830.2,5.00,000.00,030.5,029.7,000.0,038.8,032.2,025.3,0002.5,0007.91,0013.75,0007.00
2024-05-31 20:26:00,SystemResetWarning,0830.2,4.99,000.00,030.5,029.8,000.0,038.8,032.2,025.2,0002.5,0007.84,0014.17,0006.94
2024-05-31 20:27:00,SystemResetWarning,0830.1,5.00,000.00,030.5,029.8,000.0,038.8,032.3,024.5,0002.5,0007.77,0014.41,0006.88
2024-05-31 20:28:00,SystemResetWarning,0830.1,5.01,000.00,030.5,029.8,000.0,038.8,032.3,024.7,0001.9,0007.78,0014.96,0006.86
2024-05-31 20:29:00,SystemResetWarning,0830.1,5.00,000.00,030.5,029.8,000.0,038.8,032.3,024.5,0001.6,0007.73,0015.26,0006.86
2024-05-31 20:30:00,SystemResetWarning,0830.0,5.00,000.00,030.5,029.8,000.0,038.8,032.3,024.6,0001.9,0007.74,0015.51,0006.89
2024-05-31 20:31:00,SystemResetWarning,0830.0,5.00,000.00,030.6,029.9,000.0,038.9,032.3,025.1,0002.0,0007.74,0015.49,0006.90
2024-05-31 20:32:00,SystemResetWarning,0830.1,4.99,000.00,030.6,029.9,000.0,038.9,032.3,025.2,0001.8,0007.70,0015.50,0006.86
2024-05-31 20:33:00,SystemResetWarning,0830.1,5.00,000.00,030.6,029.9,000.0,038.9,032.3,024.7,0001.7,0007.69,0015.22,0006.83
2024-05-31 20:34:00,SystemResetWarning,0830.1,5.00,000.00,030.6,029.9,000.0,038.9,032.3,024.4,0001.3,0007.72,0016.28,0006.82
2024-05-31 20:35:00,SystemResetWarning,0830.2,5.01,000.00,030.6,029.9,000.0,038.9,032.3,025.0,0001.6,0007.68,0017.34,0006.81
2024-05-31 20:36:00,SystemResetWarning,0830.1,5.00,000.00,030.6,029.9,000.0,038.9,032.4,025.1,0001.2,0007.63,0017.51,0006.76
2024-05-31 20:37:00,SystemResetWarning,0830.1,4.99,000.00,030.6,029.9,000.0,038.9,032.4,025.5,0000.8,0007.62,0017.34,0006.74
2024-05-31 20:38:00,SystemResetWarning,0830.1,5.00,000.00,030.6,029.9,000.0,039.0,032.4,025.1,0000.9,0007.62,0017.50,0006.73
2024-05-31 20:39:00,SystemResetWarning,0830.1,5.01,000.00,030.7,030.0,000.0,039.0,032.4,025.1,0001.5,0007.61,0017.48,0006.73
2024-05-31 20:40:00,SystemResetWarning,0830.1,5.01,000.00,030.7,030.0,000.0,039.0,032.4,024.8,0001.5,0007.64,0017.96,0006.72
2024-05-31 20:41:00,SystemResetWarning,0830.1,5.00,000.00,030.7,030.0,000.0,039.0,032.4,024.8,0001.5,0007.64,0018.42,0006.67
2024-05-31 20:42:00,SystemResetWarning,0830.0,4.99,000.00,030.7,030.0,000.0,039.0,032.4,025.4,0001.5,0007.60,0018.44,0006.63
2024-05-31 20:43:00,SystemResetWarning,0830.0,4.99,000.00,030.7,030.0,000.0,039.0,032.4,025.3,0001.4,0007.53,0018.43,0006.58
2024-05-31 20:44:00,SystemResetWarning,0830.0,5.00,000.00,030.7,030.0,000.0,039.0,032.4,025.0,0001.9,0007.48,0018.82,0006.56
2024-05-31 20:45:00,SystemResetWarning,0830.0,5.00,000.00,030.7,030.0,000.0,039.0,032.4,024.5,0002.4,0007.44,0019.26,0006.57
2024-05-31 20:46:00,SystemResetWarning,0830.0,5.00,000.00,030.7,030.0,000.0,039.0,032.4,024.2,0002.5,0007.46,0018.16,0006.57
2024-05-31 20:47:00,SystemResetWarning,0830.0,5.00,000.00,030.7,030.0,000.0,039.0,032.5,024.6,0002.2,0007.44,0017.66,0006.56
2024-05-31 20:48:00,SystemResetWarning,0830.0,5.01,000.00,030.7,030.0,000.0,039.1,032.5,024.3,0002.4,0007.43,0017.47,0006.55
2024-05-31 20:49:00,SystemResetWarning,0830.0,4.99,000.00,030.8,030.1,000.0,039.1,032.5,024.6,0001.8,0007.39,0016.96,0006.54
2024-05-31 20:50:00,SystemResetWarning,0830.0,4.99,000.00,030.8,030.1,000.0,039.1,032.5,024.1,0000.8,0007.41,0016.86,0006.53
2024-05-31 20:51:00,SystemResetWarning,0830.0,4.99,000.00,030.8,030.1,000.0,039.1,032.5,024.2,0000.6,0007.40,0015.82,0006.52
2024-05-31 20:52:00,SystemResetWarning,0830.0,5.00,000.00,030.8,030.1,000.0,039.1,032.5,023.9,0001.0,0007.38,0015.00,0006.54
2024-05-31 20:53:00,SystemResetWarning,0830.0,5.01,000.00,030.8,030.1,000.0,039.1,032.5,024.3,0000.9,0007.42,0014.40,0006.56
2024-05-31 20:54:00,SystemResetWarning,0830.0,5.01,000.00,030.8,030.1,000.0,039.2,032.5,024.1,0000.7,0007.46,0014.03,0006.58
2024-05-31 20:55:00,SystemResetWarning,0830.1,5.00,000.00,030.8,030.1,000.0,039.2,032.6,024.2,-000.1,0007.48,0013.48,0006.60
2024-05-31 20:56:00,SystemResetWarning,0830.0,4.99,000.00,030.8,030.1,000.0,039.2,032.6,024.3,-000.5,0007.49,0013.07,0006.59
2024-05-31 20:57:00,SystemResetWarning,0830.0,4.99,000.00,030.8,030.1,000.0,039.2,032.6,024.1,-000.7,0007.43,0012.56,0006.56
2024-05-31 20:58:00,SystemResetWarning,0830.0,5.01,000.00,030.8,030.2,000.0,039.2,032.6,024.1,-000.3,0007.44,0012.27,0006.56
2024-05-31 20:59:00,SystemResetWarning,0830.0,5.01,000.00,030.8,030.2,000.0,039.2,032.6,024.3,0000.2,0007.45,0012.18,0006.58
